| time (UTC) | temp F | wind direction | speed knots | gust knots | rain 1hr in | rain 24hr in | rain mn in | humidity % | barometer mb |
| 20260504020127 | 47 | 314 | 0.0 | 2.6 | 0.00 | 0.03 | 0.00 | 64 | 1019.0 |
| 20260504014601 | 48 | 306 | 0.9 | 2.6 | 0.00 | 0.03 | 0.00 | 64 | 1019.0 |
| 20260504013058 | 48 | 214 | 0.0 | 1.7 | 0.00 | 0.03 | 0.00 | 62 | 1018.9 |
| 20260504011547 | 48 | 86 | 0.0 | 0.0 | 0.00 | 0.03 | 0.00 | 62 | 1018.7 |
| 20260504010046 | 48 | 86 | 0.0 | 2.6 | 0.00 | 0.03 | 0.00 | 62 | 1018.6 |
| 20260504004615 | 48 | 86 | 0.0 | 0.9 | 0.00 | 0.03 | 0.00 | 63 | 1018.6 |
| 20260504003048 | 48 | 85 | 0.9 | 2.6 | 0.00 | 0.03 | 0.00 | 62 | 1018.5 |
| 20260504001603 | 49 | 221 | 0.9 | 4.3 | 0.00 | 0.03 | 0.00 | 60 | 1018.6 |
| 20260504000041 | 49 | 59 | 0.0 | 0.0 | 0.00 | 0.03 | 0.00 | 59 | 1018.5 |
| 20260503234536 | 49 | 59 | 0.0 | 0.0 | 0.00 | 0.03 | 0.00 | 58 | 1018.5 |
| 20260503233039 | 50 | 59 | 0.0 | 0.0 | 0.00 | 0.03 | 0.00 | 57 | 1018.6 |
| 20260503231534 | 50 | 59 | 0.9 | 2.6 | 0.00 | 0.03 | 0.00 | 56 | 1018.6 |
| 20260503230031 | 51 | 63 | 0.0 | 1.7 | 0.00 | 0.03 | 0.00 | 56 | 1018.7 |
| 20260503224529 | 51 | 63 | 0.0 | 2.6 | 0.00 | 0.03 | 0.00 | 54 | 1018.6 |
| 20260503223024 | 52 | 53 | 0.0 | 4.3 | 0.00 | 0.03 | 0.00 | 53 | 1018.6 |
| 20260503221521 | 53 | 355 | 0.0 | 1.7 | 0.00 | 0.03 | 0.00 | 53 | 1018.6 |
| 20260503220017 | 54 | 355 | 0.9 | 2.6 | 0.00 | 0.03 | 0.00 | 50 | 1018.5 |
| 20260503214518 | 55 | 355 | 0.0 | 3.5 | 0.00 | 0.03 | 0.00 | 48 | 1018.5 |
| 20260503213012 | 55 | 345 | 0.0 | 3.5 | 0.00 | 0.03 | 0.00 | 45 | 1018.4 |
| 20260503211508 | 56 | 308 | 1.7 | 3.5 | 0.00 | 0.03 | 0.00 | 45 | 1018.4 |
| 20260503210008 | 56 | 103 | 2.6 | 5.2 | 0.00 | 0.03 | 0.00 | 43 | 1018.3 |
| 20260503204506 | 56 | 186 | 0.0 | 3.5 | 0.00 | 0.03 | 0.03 | 44 | 1018.3 |
| 20260503203013 | 57 | 142 | 3.5 | 7.8 | 0.00 | 0.03 | 0.03 | 41 | 1018.3 |
| 20260503201504 | 56 | 189 | 0.0 | 7.0 | 0.00 | 0.03 | 0.03 | 42 | 1018.3 |
| 20260503200005 | 56 | 130 | 1.7 | 6.1 | 0.00 | 0.03 | 0.03 | 43 | 1018.3 |
| 20260503194504 | 56 | 67 | 1.7 | 6.1 | 0.00 | 0.03 | 0.03 | 43 | 1018.4 |
| 20260503193003 | 57 | 78 | 0.9 | 4.3 | 0.00 | 0.03 | 0.03 | 42 | 1018.3 |
| 20260503191502 | 57 | 121 | 0.9 | 3.5 | 0.00 | 0.03 | 0.03 | 40 | 1018.2 |
| 20260503190004 | 58 | 189 | 0.0 | 3.5 | 0.00 | 0.03 | 0.03 | 40 | 1018.1 |
| 20260503184502 | 58 | 123 | 1.7 | 8.7 | 0.00 | 0.03 | 0.03 | 38 | 1017.8 |
| 20260503183002 | 59 | 76 | 3.5 | 8.7 | 0.00 | 0.03 | 0.03 | 37 | 1017.5 |
| 20260503181502 | 59 | 71 | 2.6 | 10.4 | 0.00 | 0.03 | 0.03 | 37 | 1017.3 |
| 20260503180100 | 60 | 105 | 2.6 | 7.8 | 0.00 | 0.03 | 0.03 | 36 | 1017.1 |
| 20260503180000 | 60 | 111 | 3.5 | 7.8 | 0.00 | 0.03 | 0.03 | 36 | 1017.2 |
| 20260503174603 | 61 | 105 | 0.9 | 5.2 | 0.00 | 0.03 | 0.03 | 37 | 1017.1 |
| 20260503173105 | 62 | 87 | 0.0 | 1.7 | 0.00 | 0.03 | 0.03 | 38 | 1017.0 |
| 20260503171604 | 63 | 5 | 0.0 | 1.7 | 0.00 | 0.03 | 0.03 | 34 | 1016.8 |
| 20260503081510 | 57 | 14 | 4.3 | 12.2 | 0.01 | 0.04 | 0.03 | 44 | 1018.9 |
| 20260503071548 | 53 | 52 | 1.7 | 7.8 | 0.00 | 0.03 | 0.02 | 64 | 1018.8 |
| 20260503060106 | 48 | 11 | 0.0 | 3.5 | 0.01 | 0.03 | 0.02 | 81 | 1018.6 |
| 20260503054552 | 48 | 355 | 0.0 | 0.0 | 0.02 | 0.03 | 0.02 | 78 | 1018.5 |
| 20260503053037 | 48 | 355 | 0.0 | 2.6 | 0.02 | 0.03 | 0.02 | 77 | 1018.4 |
| 20260503051525 | 48 | 13 | 0.9 | 5.2 | 0.02 | 0.03 | 0.02 | 74 | 1018.4 |
| 20260503050025 | 49 | 57 | 7.8 | 14.8 | 0.02 | 0.02 | 0.02 | 1018.3 | |
| 20260503044523 | 49 | 84 | 3.5 | 6.1 | 0.00 | 0.01 | 0.00 | 73 | 1017.9 |
| 20260503043025 | 49 | 76 | 0.0 | 3.5 | 0.00 | 0.01 | 0.00 | 74 | 1017.8 |
| 20260503041520 | 49 | 76 | 1.7 | 6.1 | 0.00 | 0.01 | 0.00 | 73 | 1017.6 |
| 20260503040031 | 48 | 80 | 3.5 | 7.0 | 0.00 | 0.01 | 0.00 | 78 | 1017.5 |
| 20260503034518 | 48 | 335 | 1.7 | 5.2 | 0.00 | 0.01 | 0.00 | 78 | 1017.4 |
| 20260503033014 | 48 | 5 | 1.7 | 5.2 | 0.00 | 0.01 | 0.00 | 78 | 1017.2 |
| 20260503031513 | 48 | 59 | 0.9 | 4.3 | 0.00 | 0.01 | 0.00 | 80 | 1017.1 |
| 20260503030013 | 47 | 5 | 0.9 | 2.6 | 0.00 | 0.01 | 0.00 | 81 | 1017.1 |
| 20260503024513 | 47 | 360 | 0.0 | 7.8 | 0.00 | 0.01 | 0.00 | 82 | 1017.2 |
| 20260503023012 | 47 | 82 | 1.7 | 5.2 | 0.00 | 0.01 | 0.00 | 83 | 1017.5 |
| 20260503021510 | 47 | 59 | 1.7 | 5.2 | 0.00 | 0.01 | 0.00 | 83 | 1017.5 |